When you browse on this site, cookies collect data to enhance your experience and personalize the content and advertising you see.
Visit our Privacy Policy to learn more. By continuing to use the site, you agree to this use of cookies and data.
  • In Deutschland
  • Länderverzeichnis
  • Für 7 Tage
  • Wassertemperatur
  • Wetterkarte
  • Widgets
  • user-avatar
    Anmelden

    Stündliche Wetter Perth

    Heute, 16 September, Montag

    Zeit Temperatur Niederschläge Wind Luftdruck Luftfeuchtigkeit
    00:00 +15°C° 0 mm 5 m/S 765 mmHg 78%
    01:00 +15°C° 0 mm 5 m/S 765 mmHg 80%
    02:00 +15°C° 0 mm 6 m/S 765 mmHg 82%
    03:00 +15°C° 0 mm 6 m/S 764 mmHg 82%
    04:00 +14°C° 0 mm 6 m/S 764 mmHg 81%
    05:00 +14°C° 0 mm 6 m/S 764 mmHg 80%
    06:00 +15°C° 0 mm 6 m/S 764 mmHg 77%
    07:00 +16°C° 0 mm 6 m/S 764 mmHg 75%
    08:00 +16°C° 0 mm 7 m/S 765 mmHg 69%
    09:00 +19°C° 0 mm 6 m/S 764 mmHg 67%
    10:00 +20°C° 0 mm 5 m/S 764 mmHg 64%
    11:00 +22°C° 0 mm 4 m/S 764 mmHg 62%
    12:00 +23°C° 0 mm 4 m/S 763 mmHg 60%
    13:00 +25°C° 0 mm 3 m/S 762 mmHg 57%
    14:00 +26°C° 0 mm 2 m/S 762 mmHg 55%
    15:00 +26°C° 0 mm 2 m/S 762 mmHg 58%
    16:00 +25°C° 0 mm 2 m/S 761 mmHg 60%
    17:00 +25°C° 0 mm 2 m/S 761 mmHg 63%
    18:00 +23°C° 0 mm 2 m/S 761 mmHg 67%
    19:00 +21°C° 0 mm 2 m/S 762 mmHg 72%
    20:00 +20°C° 0 mm 2 m/S 762 mmHg 76%
    21:00 +20°C° 0 mm 2 m/S 762 mmHg 78%
    22:00 +20°C° 0 mm 1 m/S 761 mmHg 80%
    23:00 +20°C° 0 mm 1 m/S 761 mmHg 81%

    Morgen, 17 September, Dienstag

    Zeit Temperatur Niederschläge Wind Luftdruck Luftfeuchtigkeit
    00:00 +19°C° 0 mm 1 m/S 761 mmHg 83%
    01:00 +19°C° 0 mm 1 m/S 761 mmHg 85%
    02:00 +18°C° 0 mm 1 m/S 760 mmHg 87%
    03:00 +18°C° 0 mm 1 m/S 760 mmHg 88%
    04:00 +18°C° 0 mm 1 m/S 760 mmHg 89%
    05:00 +16°C° 0 mm 1 m/S 760 mmHg 89%
    06:00 +18°C° 0 mm 1 m/S 760 mmHg 88%
    07:00 +18°C° 0 mm 2 m/S 761 mmHg 86%
    08:00 +18°C° 0 mm 2 m/S 761 mmHg 85%
    09:00 +19°C° 0 mm 2 m/S 761 mmHg 80%
    10:00 +20°C° 0 mm 3 m/S 761 mmHg 75%
    11:00 +21°C° 0 mm 3 m/S 761 mmHg 70%
    12:00 +21°C° 0 mm 4 m/S 760 mmHg 68%
    13:00 +21°C° 0 mm 4 m/S 760 mmHg 65%
    14:00 +22°C° 0 mm 5 m/S 759 mmHg 62%
    15:00 +21°C° 0 mm 4 m/S 760 mmHg 65%
    16:00 +20°C° 0 mm 4 m/S 760 mmHg 67%
    17:00 +20°C° 0 mm 4 m/S 760 mmHg 70%
    18:00 +19°C° 0 mm 3 m/S 761 mmHg 74%
    19:00 +18°C° 0 mm 2 m/S 761 mmHg 79%
    20:00 +18°C° 0 mm 1 m/S 762 mmHg 83%
    21:00 +16°C° 0 mm 1 m/S 762 mmHg 85%
    22:00 +16°C° 0 mm 1 m/S 761 mmHg 86%
    23:00 +16°C° 0 mm 1 m/S 761 mmHg 87%

    übermorgen, 18 September, Mittwoch

    Zeit Temperatur Niederschläge Wind Luftdruck Luftfeuchtigkeit
    00:00 +16°C° 0 mm 1 m/S 761 mmHg 87%
    01:00 +16°C° 0 mm 1 m/S 761 mmHg 87%
    02:00 +16°C° 0 mm 2 m/S 761 mmHg 86%
    03:00 +16°C° 0 mm 2 m/S 761 mmHg 86%
    04:00 +15°C° 0 mm 2 m/S 760 mmHg 86%
    05:00 +15°C° 0 mm 2 m/S 760 mmHg 86%
    06:00 +16°C° 0 mm 3 m/S 760 mmHg 84%
    07:00 +17°C° 0 mm 3 m/S 760 mmHg 81%
    08:00 +17°C° 0 mm 4 m/S 760 mmHg 79%
    09:00 +17°C° 0.1 mm 5 m/S 759 mmHg 76%
    10:00 +19°C° 0.1 mm 6 m/S 759 mmHg 72%
    11:00 +20°C° 0.1 mm 7 m/S 759 mmHg 69%
    12:00 +20°C° 0.1 mm 7 m/S 758 mmHg 68%
    13:00 +20°C° 0.1 mm 8 m/S 758 mmHg 67%
    14:00 +20°C° 0.1 mm 8 m/S 757 mmHg 66%
    15:00 +20°C° 0.1 mm 8 m/S 757 mmHg 69%
    16:00 +18°C° 0.1 mm 8 m/S 758 mmHg 71%
    17:00 +17°C° 0.1 mm 8 m/S 758 mmHg 74%
    18:00 +17°C° 0.5 mm 8 m/S 758 mmHg 75%
    19:00 +16°C° 0.5 mm 8 m/S 758 mmHg 76%
    20:00 +16°C° 0.5 mm 8 m/S 758 mmHg 77%
    21:00 +16°C° 0.6 mm 8 m/S 759 mmHg 74%
    22:00 +15°C° 0.6 mm 8 m/S 759 mmHg 72%
    23:00 +15°C° 0.6 mm 8 m/S 759 mmHg 70%

    19 September, Donnerstag

    Zeit Temperatur Niederschläge Wind Luftdruck Luftfeuchtigkeit
    00:00 +14°C° 0 mm 7 m/S 760 mmHg 67%
    01:00 +12°C° 0 mm 7 m/S 760 mmHg 64%
    02:00 +11°C° 0 mm 7 m/S 760 mmHg 62%
    03:00 +11°C° 0.1 mm 7 m/S 761 mmHg 64%
    04:00 +11°C° 0.1 mm 7 m/S 761 mmHg 66%
    05:00 +10°C° 0.1 mm 7 m/S 762 mmHg 68%
    06:00 +10°C° 0.1 mm 7 m/S 762 mmHg 67%
    07:00 +10°C° 0.1 mm 7 m/S 763 mmHg 66%
    08:00 +10°C° 0.1 mm 6 m/S 763 mmHg 65%
    09:00 +11°C° 0.1 mm 6 m/S 764 mmHg 63%
    10:00 +11°C° 0.1 mm 6 m/S 764 mmHg 60%
    11:00 +11°C° 0.1 mm 6 m/S 765 mmHg 58%
    12:00 +13°C° 0 mm 6 m/S 765 mmHg 55%
    13:00 +13°C° 0 mm 6 m/S 764 mmHg 51%
    14:00 +14°C° 0 mm 6 m/S 764 mmHg 48%
    15:00 +14°C° 0 mm 6 m/S 765 mmHg 50%
    16:00 +13°C° 0 mm 6 m/S 765 mmHg 52%
    17:00 +13°C° 0 mm 6 m/S 765 mmHg 54%
    18:00 +12°C° 0 mm 5 m/S 766 mmHg 55%
    19:00 +10°C° 0 mm 5 m/S 767 mmHg 57%
    20:00 +9°C° 0 mm 5 m/S 768 mmHg 59%
    21:00 +10°C° 0 mm 4 m/S 768 mmHg 61%
    22:00 +8°C° 0 mm 4 m/S 768 mmHg 64%
    23:00 +8°C° 0 mm 3 m/S 768 mmHg 66%

    20 September, Freitag

    Zeit Temperatur Niederschläge Wind Luftdruck Luftfeuchtigkeit
    00:00 +8°C° 0 mm 3 m/S 768 mmHg 68%
    01:00 +7°C° 0 mm 3 m/S 769 mmHg 69%
    02:00 +7°C° 0 mm 2 m/S 769 mmHg 71%
    03:00 +7°C° 0 mm 2 m/S 769 mmHg 72%
    04:00 +6°C° 0 mm 2 m/S 769 mmHg 73%
    05:00 +6°C° 0 mm 2 m/S 769 mmHg 74%
    06:00 +7°C° 0 mm 2 m/S 769 mmHg 70%
    07:00 +8°C° 0 mm 2 m/S 770 mmHg 66%
    08:00 +9°C° 0 mm 2 m/S 770 mmHg 62%
    09:00 +12°C° 0 mm 2 m/S 770 mmHg 55%
    10:00 +13°C° 0 mm 2 m/S 770 mmHg 49%
    11:00 +15°C° 0 mm 2 m/S 769 mmHg 42%
    12:00 +16°C° 0 mm 2 m/S 769 mmHg 43%
    13:00 +16°C° 0 mm 3 m/S 768 mmHg 43%
    14:00 +17°C° 0 mm 3 m/S 768 mmHg 44%
    15:00 +16°C° 0 mm 3 m/S 768 mmHg 49%
    16:00 +14°C° 0 mm 3 m/S 768 mmHg 54%
    17:00 +14°C° 0 mm 3 m/S 768 mmHg 59%
    18:00 +13°C° 0 mm 3 m/S 769 mmHg 62%
    19:00 +12°C° 0 mm 3 m/S 769 mmHg 65%
    20:00 +12°C° 0 mm 2 m/S 770 mmHg 69%
    21:00 +10°C° 0 mm 2 m/S 770 mmHg 71%
    22:00 +10°C° 0 mm 2 m/S 770 mmHg 72%
    23:00 +9°C° 0 mm 2 m/S 770 mmHg 74%

    21 September, Samstag

    Zeit Temperatur Niederschläge Wind Luftdruck Luftfeuchtigkeit
    00:00 +9°C° 0 mm 3 m/S 770 mmHg 75%
    01:00 +9°C° 0 mm 3 m/S 769 mmHg 76%
    02:00 +8°C° 0 mm 4 m/S 769 mmHg 77%
    03:00 +7°C° 0 mm 4 m/S 770 mmHg 78%
    04:00 +7°C° 0 mm 4 m/S 770 mmHg 78%
    05:00 +7°C° 0 mm 4 m/S 770 mmHg 79%
    06:00 +8°C° 0 mm 4 m/S 770 mmHg 75%
    07:00 +10°C° 0 mm 4 m/S 771 mmHg 72%
    08:00 +10°C° 0 mm 4 m/S 771 mmHg 68%
    09:00 +12°C° 0 mm 4 m/S 771 mmHg 61%
    10:00 +14°C° 0 mm 4 m/S 771 mmHg 54%
    11:00 +17°C° 0 mm 3 m/S 771 mmHg 46%
    12:00 +17°C° 0 mm 3 m/S 770 mmHg 45%
    13:00 +18°C° 0 mm 3 m/S 770 mmHg 43%
    14:00 +19°C° 0 mm 3 m/S 769 mmHg 41%
    15:00 +18°C° 0 mm 4 m/S 769 mmHg 45%
    16:00 +18°C° 0 mm 4 m/S 769 mmHg 49%
    17:00 +17°C° 0 mm 4 m/S 769 mmHg 52%
    18:00 +15°C° 0 mm 4 m/S 770 mmHg 56%
    19:00 +13°C° 0 mm 4 m/S 770 mmHg 59%
    20:00 +12°C° 0 mm 4 m/S 771 mmHg 62%
    21:00 +11°C° 0 mm 4 m/S 771 mmHg 63%
    22:00 +11°C° 0 mm 4 m/S 771 mmHg 65%
    23:00 +10°C° 0 mm 3 m/S 771 mmHg 66%
    Mehr zeigen